Location: Unnamed
(53.9021°N, 27.5568°E)
Time: 22:28:05
(UTC+03:00)

STARLINK-73 - Visible Passes

Search period start: 08 April 2020 00:00
Search period end: 18 April 2020 00:00
Orbit: 529 x 530 km, 53.0° (Epoch: 08 April)

Date Brightness Start Highest point End Pass type
(mag) Time Alt. Az. Time Alt. Az. Time Alt. Az.
08 Apr 5.0 03:08:09 29° ESE 03:08:09 29° ESE 03:10:33 10° E visible
08 Apr 3.5 04:43:23 24° WSW 04:45:41 76° S 04:49:43 10° E visible
09 Apr 5.1 02:56:26 28° ESE 02:56:26 28° ESE 02:58:38 10° E visible
09 Apr 3.5 04:31:39 27° WSW 04:33:44 78° S 04:37:47 10° E visible
10 Apr 5.2 02:44:39 26° E 02:44:39 26° E 02:46:40 10° E visible
10 Apr 3.4 04:19:52 31° W 04:21:45 80° S 04:25:47 10° E visible
11 Apr 5.3 02:32:49 24° E 02:32:49 24° E 02:34:36 10° E visible
11 Apr 3.4 04:08:02 34° W 04:09:41 80° S 04:13:43 10° E visible
12 Apr 5.5 02:20:56 22° E 02:20:56 22° E 02:22:30 10° E visible
12 Apr 3.4 03:56:07 39° W 03:57:33 80° S 04:01:36 10° E visible
12 Apr 3.8 05:32:37 10° W 05:36:32 51° SSW 05:40:27 10° SE visible
13 Apr 5.6 02:09:00 20° E 02:09:00 20° E 02:10:19 10° E visible
13 Apr 3.4 03:44:12 45° W 03:45:22 80° S 03:49:24 10° E visible
13 Apr 3.9 05:20:26 10° W 05:24:19 47° SSW 05:28:12 10° SE visible
14 Apr 5.8 01:57:02 17° E 01:57:02 17° E 01:58:05 10° E visible
14 Apr 3.4 03:32:14 53° W 03:33:07 79° S 03:37:09 10° E visible
14 Apr 4.0 05:08:12 10° W 05:12:02 43° SSW 05:15:51 10° SE visible
15 Apr 6.0 01:45:06 14° E 01:45:06 14° E 01:45:46 10° E visible
15 Apr 3.4 03:20:18 64° WSW 03:20:48 77° S 03:24:50 10° ESE visible
15 Apr 4.1 04:55:54 10° W 04:59:41 39° SSW 05:03:27 10° SE visible
16 Apr 6.2 01:33:11 11° E 01:33:11 11° E 01:33:24 10° E visible
16 Apr 3.4 03:08:24 75° SSW 03:08:26 75° S 03:12:27 10° ESE visible
16 Apr 4.2 04:43:37 10° W 04:47:15 35° SSW 04:50:57 10° SE visible
17 Apr 3.7 02:56:38 58° SE 02:56:38 58° SE 03:00:01 10° ESE visible
17 Apr 4.3 04:31:52 14° W 04:34:46 32° SSW 04:38:22 10° SSE visible
